FENGYUN 1C DEB

Satellite information

Favourite Embed

Satellite Type and Status

DEBRISIN ORBIT

Key statistics

Satellite FENGYUN 1C DEB at a glance.

Uptime

9714

Days in orbit

Revolutions

≈ 14.3

Per day

Orbit

SSO

Sun Synchronous Orbit

Inclination

98.8

Latest

Satellite identification and parameters

Extended collection of information and parameters for FENGYUN 1C DEB.

Object identification

Identified? True

Debris? True

Object name: FENGYUN 1C DEB

International designator: 1999-025ADU

Object number (NORAD): 30405

Object ID (CCSDS): 30405

Country: PEOPLES REPUBLIC OF CHINA (PRC)

Current information (Y/N): Y

RCS size: SMALL

Orbital parameters

Period: 100.776 minutes

Inclination: 98.7936 deg

SMA: 7173.507 km

Apoapsis: 832.271 km

Periapsis: 758.473 km

RAAN: 80.1981 deg

Eccentricy: 0.00514373

Argument of periapsis: 155.2881 deg

Mean anomaly: 234.8631 deg

Mean motion: 14.28911949 rev/day

Mean motion (dot): 0.00007206 rev/day2

B* drag term: 0.0028279829 1/REarth

Two-line elements (TLE)

Creation date: Dec. 12, 2025, 10:14 a.m.

Reference frame: TEME

Reference center: EARTH

Epoch: Dec. 12, 2025, 5:12 a.m. UTC

TLE line 0: 0 FENGYUN 1C DEB

TLE line 1: 1 30405U 99025ADU 25346.21731785 .00007206 00000-0 28280-2 0 9998

TLE line 2: 2 30405 98.7936 80.1981 0051437 155.2881 234.8631 14.28911949973883

Live tracking on map

Real-time ground track for satellite FENGYUN 1C DEB.

In-orbit conjunctions

A list of the most updated potential collisions computed for object FENGYUN 1C DEB.

Target Orbit TCA Probability of collision Miss distance Type
COSMOS 1275 DEB LEO 2025-10-20 08:42:14 0.0001383298 334.0 (m) DEBRIS
IRS P2 R/B SSO 2025-02-26 08:53:03 0.0001223686 807.0 (m) ROCKET BODY
CZ-6A DEB LEO 2025-02-22 05:48:00 0.000128127 130.0 (m) DEBRIS
CZ-6A DEB LEO 2024-11-30 05:25:48 0.0001492649 755.0 (m) DEBRIS
CZ-6A DEB LEO 2024-11-27 03:15:13 0.0001165773 891.0 (m) DEBRIS

Associated space launch

Chinese polar orbiting meteorological satellite

FENGYUN 1C DEB was lifted into orbit during the mission ‘Long March 4B | Feng Yun 1C’, on board a Long March 4B space rocket.

The launch took place on May 10, 1999, 1:33 a.m. from Launch Complex 7.

For more information about the launch, click the button.

Launch to space Long March 4B | Feng Yun 1C
Long March 4B | Feng Yun 1C

Agency: N/A

Status: Launch Successful

Launch date: May 10, 1999, 1:33 a.m. UTC

Rocket: Long March 4B

Launch pad: Launch Complex 7

Location: Taiyuan Satellite Launch Center, People's Republic of China

...

Latest news about this satellite

There are no fresh news available about this satellite. Check back as we update our databases every day.


Newsletter sign-up

Weekly statistics, charts and insights to help you stay on top of the space industry.